Location: Namasale
(1.5000°N, 32.6167°E)
Time: 20:46:57
(UTC+00:00)

Envisat - Pass Details

Date: 09 December 2021
Orbit: 764 x 766 km, 98.2° (Epoch: 25 January)

Event Time Altitude Azimuth Distance (km) Brightness Sun altitude
Rises 02:37:15 0° 5° (N) 3,214 6.0 -15.4°
Reaches altitude 10° 02:39:34 10° 2° (N) 2,290 5.3 -14.9°
Maximum altitude 02:44:32 62° 282° (WNW) 856 3.0 -13.8°
Drops below altitude 10° 02:49:32 10° 202° (SSW) 2,298 5.5 -12.6°
Sets 02:51:52 0° 198° (SSW) 3,225 6.3 -12.1°
